[[{"header":{"parameterUnit":"m.s-1","parameterCategory":1,"la1":30.2991,"la2":30.254,"lo1":-89.0895,"lo2":-89.0444,"dy":0.0017,"dx":0.0017,"nx":28,"ny":28,"refTime":"2024-05-22T03:00:00:Z","depth":0,"parameterNumber":2,"parameterNumberName":"U-component_of_WINDS"},"data":[0,0,0,0,0,0,0,0,0,0,0,0,0,0,0,0,0,0,0,0,0,0,0,0,0,0,0,0,0,0,0,0,0,0,0,0,0,0,0,0,0,0,0,0,0,0,0,0,0,0,0,0,0,0,0,0,0,0,-2.7762,-2.7762,0,-2.7763,-2.7763,-2.7763,-2.7727,-2.7726,-2.7725,-2.7724,-2.7726,-2.7727,-2.7728,0,0,0,0,0,0,0,0,0,0,0,0,0,-2.7734,-2.7734,-2.7762,-2.7762,-2.7762,-2.7763,-2.7763,-2.7763,-2.7727,-2.7726,-2.7725,-2.7724,-2.7725,-2.7727,-2.7728,0,0,0,0,0,0,0,0,0,0,0,0,0,-2.7741,-2.7735,-2.7762,-2.7745,-2.7743,-2.7763,-2.7763,-2.7763,-2.7727,-2.7726,-2.7725,-2.7723,-2.7725,-2.7726,-2.7728,-2.7764,0,0,-2.7732,-2.7733,0,0,0,0,0,0,0,0,-2.7741,-2.7742,-2.7747,-2.7746,-2.7744,-2.7743,-2.7753,-2.7763,-2.7728,-2.7734,-2.7724,-2.7723,-2.7733,-2.7733,-2.7737,-2.7764,-2.7764,-2.7732,-2.7733,-2.7734,-2.7734,0,0,0,0,0,0,0,-2.774,-2.7742,-2.7762,-2.7748,-2.7746,-2.7738,-2.7737,-2.7755,-2.7741,-2.7733,-2.773,-2.7731,-2.7732,-2.7735,-2.7736,-2.7764,-2.7732,-2.7733,-2.7734,-2.7735,-2.7823,-2.7824,0,0,0,0,0,0,-2.7742,-2.7742,-2.7762,-2.7762,-2.7739,-2.7739,-2.7739,-2.7745,-2.7741,-2.7739,-2.7732,-2.7729,-2.7734,-2.7735,-2.7736,-2.7778,-2.7734,-2.7735,-2.7736,-2.7821,-2.7823,-2.7825,0,0,0,0,0,0,-2.7742,-2.7744,-2.7762,-2.7752,-2.7753,-2.7741,-2.7749,-2.7746,-2.7749,-2.774,-2.7738,-2.7738,-2.7733,-2.7734,-2.7758,-2.7778,-2.7735,-2.7737,-2.7819,-2.7822,-2.7824,-2.7863,0,0,0,0,0,0,-2.7741,-2.7744,-2.7757,-2.7752,-2.7754,-2.7783,-2.775,-2.7747,-2.7752,-2.7748,-2.7745,-2.7743,-2.7732,-2.7756,-2.7759,-2.7779,-2.7738,-2.7817,-2.782,-2.7823,-2.786,-2.7866,-2.7872,0,0,0,0,0,-2.774,-2.7769,-2.7758,-2.7761,-2.777,-2.7784,-2.7785,-2.7771,-2.7753,-2.7767,-2.7761,-2.7743,-2.7776,-2.7758,-2.7762,-2.7783,-2.7816,-2.782,-2.7823,-2.7857,-2.7865,-2.7872,0,0,0,0,0,0,-2.7777,-2.7768,-2.7756,-2.7784,-2.7785,-2.7778,-2.7795,-2.778,-2.7787,-2.7783,-2.7766,-2.7765,-2.7791,-2.779,-2.7771,-2.7818,-2.7793,-2.7797,-2.7818,-2.7825,-2.7831,-2.783,-2.7739,0,0,0,0,0,-2.7788,-2.78,-2.7792,-2.7817,-2.7818,-2.7807,-2.7812,-2.7801,-2.7802,-2.7803,-2.7799,-2.7801,-2.7811,-2.7818,-2.7828,-2.786,-2.7859,-2.7876,-2.7883,-2.7888,-2.7891,-2.7908,-2.7915,-2.7836,-2.7836,-2.7836,0,0,-2.7812,-2.7808,-2.7817,-2.7825,-2.7824,-2.7837,-2.7807,-2.7822,-2.7832,-2.7805,-2.7826,-2.7824,-2.7825,-2.7853,-2.7865,-2.7852,-2.7913,-2.7892,-2.7896,-2.7897,-2.7912,-2.792,-2.7927,-2.7838,-2.7838,-2.7837,0,0,-2.7861,-2.786,-2.7881,-2.7881,-2.7881,-2.7873,-2.7879,-2.7874,-2.7871,-2.7893,-2.7873,-2.7885,-2.7903,-2.7905,-2.7908,-2.796,-2.7944,-2.7964,-2.7995,-2.8011,-2.8018,-2.8023,-2.8041,-2.8047,-2.7967,-2.7967,-2.7967,0,-2.789,-2.7909,-2.7893,-2.791,-2.7914,-2.789,-2.7911,-2.7913,-2.7916,-2.792,-2.7906,-2.7929,-2.7928,-2.7956,-2.7969,-2.7972,-2.7978,-2.7963,-2.8018,-2.8023,-2.8028,-2.8045,-2.8052,-2.797,-2.7969,-2.7969,-2.7969,0,-2.7945,-2.7958,-2.7975,-2.7978,-2.7984,-2.8003,-2.7991,-2.8,-2.7989,-2.7983,-2.8005,-2.8003,-2.8012,-2.8018,-2.8008,-2.8045,-2.8037,-2.8021,-2.7995,-2.8038,-2.8054,-2.806,-2.7973,-2.7972,-2.7971,-2.7971,0,0,-2.8015,-2.8011,-2.8017,-2.8018,-2.8017,-2.8027,-2.8046,-2.8054,-2.8061,-2.8065,-2.808,-2.8097,-2.8082,-2.8086,-2.8076,-2.8091,-2.8131,-2.8073,-2.8072,-2.8083,-2.8172,-2.8183,-2.819,-2.8121,-2.8122,-2.8123,-2.8171,0,-2.8062,-2.8092,-2.8079,-2.8111,-2.8123,-2.8102,-2.8118,-2.8119,-2.8115,-2.8125,-2.812,-2.8132,-2.8112,-2.8114,-2.8128,-2.8123,-2.8148,-2.812,-2.8135,-2.8135,-2.8133,-2.8199,-2.821,-2.8255,-2.8177,-2.8178,-2.8179,0,-2.8121,-2.8126,-2.8159,-2.8156,-2.816,-2.8175,-2.8181,-2.8191,-2.8193,-2.8189,-2.8194,-2.818,-2.8199,-2.8175,-2.82,-2.8181,-2.8186,-2.8185,-2.8187,-2.8186,-2.8159,-2.8199,-2.827,-2.8276,-2.8188,-2.8188,-2.8187,0,-2.8168,-2.8184,-2.8205,-2.8207,-2.8205,-2.8215,-2.8215,-2.8215,-2.8221,-2.8227,-2.8231,-2.824,-2.8244,-2.8252,-2.8241,-2.8225,-2.8268,-2.8243,-2.8265,-2.8265,-2.8274,-2.8273,-2.8345,-2.828,-2.828,-2.828,-2.828,0,-2.8221,-2.8242,-2.8226,-2.8239,-2.8262,-2.8248,-2.8271,-2.8268,-2.8269,-2.8282,-2.8265,-2.8277,-2.8263,-2.8275,-2.8267,-2.8289,-2.8292,-2.8289,-2.8286,-2.829,-2.829,-2.8292,-2.8288,-2.8281,-2.8281,-2.8281,-2.828,0,-2.8277,-2.8268,-2.8289,-2.8285,-2.8285,-2.8302,-2.8298,-2.8311,-2.8305,-2.8322,-2.8325,-2.8317,-2.8329,-2.832,-2.8333,-2.8328,-2.8357,-2.835,-2.8356,-2.8353,-2.8376,-2.8373,-2.845,-2.846,-2.839,-2.839,-2.8391,0,-2.8311,-2.8326,-2.8323,-2.833,-2.8331,-2.8342,-2.8348,-2.8336,-2.8342,-2.8346,-2.8358,-2.8369,-2.8377,-2.8398,-2.8394,-2.8404,-2.8397,-2.8424,-2.8398,-2.8401,-2.8396,-2.8395,-2.8396,-2.8428,-2.8429,-2.843,-2.843,0,-2.8372,-2.8366,-2.8375,-2.8382,-2.8389,-2.8395,-2.8399,-2.8406,-2.8393,-2.8402,-2.8414,-2.8421,-2.8434,-2.8445,-2.8453,-2.8453,-2.844,-2.8439,-2.8444,-2.8447,-2.8449,-2.8447,-2.8368,-2.8436,-2.8436,-2.8435,-2.8435,-2.8435,-2.8417,-2.8429,-2.8429,-2.844,-2.8441,-2.8446,-2.8457,-2.8453,-2.8463,-2.8472,-2.8464,-2.8479,-2.8481,-2.8491,-2.8493,-2.8505,-2.8494,-2.8502,-2.8504,-2.8506,-2.8509,-2.8448,-2.8507,-2.8507,-2.8506,-2.8506,-2.8506,0,-2.8476,-2.8475,-2.8485,-2.849,-2.8499,-2.8485,-2.849,-2.8497,-2.851,-2.8513,-2.8522,-2.8536,-2.8547,-2.8544,-2.8554,-2.8564,-2.8559,-2.8567,-2.8566,-2.8566,-2.8518,-2.8512,-2.8572,-2.8572,-2.8572,-2.8572,-2.8572,-2.8572,-2.8507,-2.8527,-2.8522,-2.8544,-2.8543,-2.8557,-2.856,-2.8564,-2.8566,-2.8583,-2.8592,-2.859,-2.8591,-2.8601,-2.861,-2.8609,-2.8614,-2.8625,-2.8621,-2.8576,-2.857,-2.8563,-2.8557,-2.8626,-2.8626,-2.8668,-2.8668,-2.8669]},{"header":{"parameterUnit":"m.s-1","parameterCategory":1,"la1":30.2991,"la2":30.254,"lo1":-89.0895,"lo2":-89.0444,"dy":0.0017,"dx":0.0017,"nx":28,"ny":28,"refTime":"2024-05-22T03:00:00:Z","depth":0,"parameterNumber":3,"parameterNumberName":"V-component_of_WINDS"},"data":[0,0,0,0,0,0,0,0,0,0,0,0,0,0,0,0,0,0,0,0,0,0,0,0,0,0,0,0,0,0,0,0,0,0,0,0,0,0,0,0,0,0,0,0,0,0,0,0,0,0,0,0,0,0,0,0,0,0,3.2993,3.2993,0,3.3,3.3,3.3,3.2995,3.2995,3.2994,3.2994,3.3001,3.3001,3.3001,0,0,0,0,0,0,0,0,0,0,0,0,0,3.2974,3.2974,3.2993,3.2993,3.2993,3.3,3.3,3.3,3.2995,3.2994,3.2994,3.2994,3.3001,3.3001,3.3001,0,0,0,0,0,0,0,0,0,0,0,0,0,3.2982,3.2974,3.2993,3.2991,3.2991,3.3,3.3,3.3,3.2995,3.2994,3.2994,3.2994,3.3,3.3001,3.3002,3.3012,0,0,3.3003,3.3004,0,0,0,0,0,0,0,0,3.2981,3.2982,3.2991,3.2991,3.2991,3.2996,3.2996,3.3004,3.2995,3.2993,3.2994,3.2994,3.2999,3.3,3.3002,3.3012,3.3012,3.3003,3.3004,3.3004,3.3004,0,0,0,0,0,0,0,3.2981,3.2982,3.2995,3.2991,3.2991,3.299,3.2991,3.2997,3.2998,3.2993,3.2993,3.2994,3.2999,3.3001,3.3002,3.3013,3.3003,3.3004,3.3004,3.3004,3.3031,3.3032,0,0,0,0,0,0,3.298,3.2982,3.2995,3.2996,3.2985,3.299,3.2991,3.2995,3.2998,3.2998,3.2994,3.2994,3.3001,3.3001,3.3002,3.3015,3.3004,3.3004,3.3005,3.3031,3.3031,3.3032,0,0,0,0,0,0,3.298,3.2982,3.2995,3.2988,3.299,3.2991,3.2995,3.2995,3.2997,3.2999,3.2999,3.2996,3.3,3.3002,3.301,3.3015,3.3005,3.3005,3.3031,3.3031,3.3032,3.3039,0,0,0,0,0,0,3.2979,3.2982,3.2986,3.2989,3.299,3.3002,3.2995,3.2995,3.2998,3.2998,3.3001,3.3001,3.3,3.3009,3.301,3.3015,3.3006,3.303,3.3031,3.3032,3.3038,3.304,3.3041,0,0,0,0,0,3.2979,3.2987,3.2986,3.2987,3.2996,3.3002,3.3003,3.3003,3.2999,3.3003,3.3004,3.3001,3.3014,3.301,3.3011,3.3017,3.303,3.3031,3.3031,3.3038,3.304,3.3041,0,0,0,0,0,0,3.2984,3.2988,3.2986,3.2996,3.2999,3.3002,3.3007,3.3005,3.3009,3.3008,3.3007,3.3007,3.3016,3.3017,3.3012,3.3027,3.3021,3.3022,3.3026,3.3027,3.3029,3.3028,3.3006,0,0,0,0,0,3.2987,3.2992,3.2995,3.3003,3.3005,3.3005,3.3008,3.3008,3.3011,3.3012,3.3013,3.3016,3.3021,3.3024,3.3029,3.3039,3.3039,3.3043,3.3044,3.3046,3.3046,3.3052,3.3053,3.3035,3.3035,3.3035,0,0,3.2992,3.2994,3.2998,3.3004,3.3007,3.3012,3.3007,3.3013,3.3017,3.3013,3.302,3.3022,3.3025,3.3034,3.3038,3.3035,3.3052,3.3047,3.3048,3.3048,3.3053,3.3054,3.3056,3.3035,3.3035,3.3035,0,0,3.3004,3.3006,3.3013,3.3016,3.302,3.302,3.3022,3.3025,3.3025,3.3033,3.303,3.3035,3.3043,3.3046,3.3048,3.3061,3.3058,3.3063,3.3069,3.3074,3.3076,3.3077,3.3082,3.3083,3.3064,3.3064,3.3064,0,3.3009,3.3018,3.3017,3.3024,3.3026,3.3023,3.3031,3.3033,3.3038,3.304,3.3037,3.3047,3.3049,3.3059,3.3062,3.3064,3.3066,3.3062,3.3076,3.3077,3.3078,3.3082,3.3084,3.3064,3.3064,3.3064,3.3064,0,3.3024,3.303,3.3035,3.3041,3.3044,3.3051,3.3051,3.3055,3.3054,3.3054,3.3062,3.3065,3.3069,3.3072,3.3071,3.3081,3.3079,3.3076,3.307,3.3081,3.3084,3.3086,3.3065,3.3065,3.3064,3.3064,0,0,3.3039,3.3044,3.3046,3.3049,3.3053,3.3057,3.3064,3.3069,3.3072,3.3075,3.308,3.3088,3.3085,3.3087,3.3087,3.3091,3.3101,3.3088,3.3088,3.309,3.3112,3.3114,3.3116,3.31,3.31,3.31,3.3112,0,3.3051,3.3063,3.3063,3.3073,3.3079,3.3076,3.3082,3.3085,3.3086,3.309,3.3091,3.3096,3.3092,3.3094,3.3098,3.3099,3.3106,3.3098,3.3104,3.3104,3.3103,3.3118,3.312,3.3131,3.3113,3.3114,3.3114,0,3.3067,3.3071,3.3082,3.3085,3.3088,3.3093,3.3097,3.3102,3.3105,3.3105,3.3108,3.3107,3.3113,3.3108,3.3117,3.3112,3.3114,3.3115,3.3115,3.3116,3.3109,3.3119,3.3135,3.3137,3.3116,3.3116,3.3116,0,3.3076,3.3085,3.3093,3.3095,3.3099,3.3102,3.3104,3.3107,3.311,3.3114,3.3116,3.3121,3.3123,3.3127,3.3126,3.3123,3.3135,3.313,3.3135,3.3135,3.3138,3.3138,3.3155,3.314,3.314,3.314,3.314,0,3.3089,3.3096,3.3097,3.3102,3.311,3.3109,3.3117,3.3118,3.3121,3.3126,3.3124,3.3128,3.3128,3.3132,3.3132,3.3139,3.3141,3.3141,3.3141,3.3141,3.3141,3.3142,3.3141,3.314,3.314,3.314,3.314,0,3.3101,3.3102,3.3111,3.3114,3.3115,3.312,3.3123,3.3127,3.3128,3.3134,3.3136,3.3137,3.3142,3.3142,3.3148,3.3148,3.3157,3.3156,3.3156,3.3155,3.3161,3.316,3.3179,3.3181,3.3166,3.3166,3.3166,0,3.3109,3.3115,3.3119,3.3122,3.3124,3.3129,3.3132,3.3132,3.3136,3.314,3.3144,3.3149,3.3153,3.3161,3.3162,3.3167,3.3166,3.3172,3.3167,3.3167,3.3166,3.3165,3.3166,3.3173,3.3173,3.3174,3.3174,0,3.3124,3.3124,3.3129,3.3134,3.3138,3.3141,3.3145,3.3148,3.3148,3.3152,3.3157,3.316,3.3167,3.3172,3.3176,3.3178,3.3176,3.3176,3.3177,3.3177,3.3177,3.3177,3.3158,3.3175,3.3175,3.3175,3.3175,3.3175,3.3134,3.3139,3.3142,3.3147,3.315,3.3153,3.3158,3.3159,3.3164,3.3169,3.3169,3.3175,3.3178,3.3183,3.3185,3.319,3.3188,3.319,3.319,3.3191,3.3191,3.3176,3.3191,3.3191,3.3191,3.3191,3.3191,0,3.3148,3.315,3.3155,3.316,3.3164,3.3163,3.3166,3.317,3.3175,3.3178,3.3182,3.3189,3.3193,3.3195,3.32,3.3203,3.3202,3.3204,3.3204,3.3204,3.3193,3.3191,3.3205,3.3205,3.3205,3.3205,3.3205,3.3205,3.3156,3.3163,3.3164,3.3173,3.3175,3.3181,3.3183,3.3186,3.3189,3.3196,3.32,3.3201,3.3204,3.3208,3.3213,3.3213,3.3215,3.3217,3.3217,3.3206,3.3205,3.3204,3.3202,3.3217,3.3217,3.3228,3.3228,3.3228]}]]